This demonstration page uses our WeatherBlox Daily Observations layout. Learn more.

Left ArrowRight Arrow

Hourly Observations for December 5, 2017

Temp ( °F °C ) Dew Point ( °F °C ) Humidity (%) Winds ( mph kmh ) Pressure ( in mb ) Visibility ( mi km ) Precip ( " mm )
12:53 am 00:53 Clear 48 8.9 33 0.6 56 56 Calm 29.91 1013 10 16 0.00 0.00
1:53 am 01:53 Clear 52 11.1 27 -2.8 38 38 ENE 17 28 29.97 1015 10 16 0.00 0.00
2:53 am 02:53 Clear 50 10 18 -7.8 28 28 NE 21 33 30.02 1017 10 16 0.00 0.00
3:53 am 03:53 Clear 46 7.8 17 -8.3 31 31 NE 21 33 30.06 1018 10 16 0.00 0.00
4:53 am 04:53 Clear 44 6.7 18 -7.8 35 35 NE 17 28 30.09 1019 10 16 0.00 0.00
5:53 am 05:53 Clear 43 6.1 19 -7.2 38 38 NNE 14 22 30.15 1021 10 16 0.00 0.00
6:53 am 06:53 Cloudy 42 5.6 21 -6.1 43 43 NNE 12 19 30.23 1024 10 16 0.00 0.00
7:53 am 07:53 Cloudy 42 5.6 22 -5.6 45 45 NNE 13 20 30.28 1026 10 16 0.00 0.00
8:53 am 08:53 Cloudy 42 5.6 22 -5.6 45 45 NNE 14 22 30.32 1027 10 16 0.00 0.00
9:53 am 09:53 Mostly Cloudy 42 5.6 22 -5.6 45 45 NE 13 20 30.33 1027 10 16 0.00 0.00
10:53 am 10:53 Cloudy 43 6.1 22 -5.6 43 43 NE 14 22 30.34 1027 10 16 0.00 0.00
11:53 am 11:53 Cloudy 45 7.2 22 -5.6 40 40 NE 10 17 30.32 1027 10 16 0.00 0.00
12:53 pm 12:53 Sunny 47 8.3 21 -6.1 36 36 NNE 7 11 30.30 1026 10 16 0.00 0.00
1:53 pm 13:53 Sunny 46 7.8 20 -6.7 35 35 NE 7 11 30.27 1025 10 16 0.00 0.00
2:53 pm 14:53 Sunny 47 8.3 19 -7.2 33 33 NE 10 17 30.26 1025 10 16 0.00 0.00
3:53 pm 15:53 Sunny 47 8.3 17 -8.3 30 30 NE 10 17 30.28 1026 10 16 0.00 0.00
4:53 pm 16:53 Sunny 46 7.8 16 -8.9 30 30 ENE 13 20 30.28 1025 10 16 0.00 0.00
5:53 pm 17:53 Mostly Cloudy 46 7.8 15 -9.4 29 29 ENE 6 9 30.30 1026 10 16 0.00 0.00
6:53 pm 18:53 Mostly Cloudy 45 7.2 13 -10.6 27 27 E 7 11 30.30 1026 10 16 0.00 0.00
7:53 pm 19:53 Cloudy 45 7.2 13 -10.6 27 27 E 5 7 30.32 1027 10 16 0.00 0.00
8:53 pm 20:53 Cloudy 44 6.7 13 -10.6 28 28 SE 5 7 30.31 1026 10 16 0.00 0.00
9:53 pm 21:53 Cloudy 44 6.7 14 -10 30 30 E 3 6 30.30 1026 10 16 0.00 0.00
10:53 pm 22:53 Cloudy 44 6.7 15 -9.4 31 31 E 3 6 30.28 1026 10 16 0.00 0.00
11:53 pm 23:53 Cloudy 43 6.1 16 -8.9 34 34 SSE 3 6 30.29 1026 10 16 0.00 0.00

Powered by AerisWeather